Location: Newark
(50.0306°N, 2.3272°E)
Time: 13:26:42
(UTC+00:00)

Transit 2A Rocket - Pass Details

Date: 11 December 2019
Orbit: 593 x 910 km, 66.7° (Epoch: 18 January)

Event Time Altitude Azimuth Distance (km) Brightness Sun altitude
Rises 00:52:22 0° 320° (NW) 2,865 - -59.8°
Reaches altitude 10° 00:54:35 10° 317° (NW) 1,978 - -59.6°
Maximum altitude 00:58:56 59° 239° (WSW) 738 - -59.2°
Drops below altitude 10° 01:03:35 10° 160° (SSE) 2,104 - -58.7°
Sets 01:06:00 0° 156° (SSE) 3,066 - -58.5°
